Amsterdam, Netherlands

2:09 PM CET on December 09, 2019 (GMT +0100)
Schiphol

Weather History for EHAM - October, 2019

Change the Weather History Date:

Thursday, October 10, 2019

  Actual Average Record
Temperature  
Mean Temperature 54 °F -  
Max Temperature 60 °F 53 °F 73 °F (2018)
Min Temperature 47 °F 43 °F 41 °F (2016)
Degree Days  
Heating Degree Days 12    
Growing Degree Days 4 (Base 50)    
Moisture  
Dew Point 48 °F    
Average Humidity 78    
Maximum Humidity 94    
Minimum Humidity 56    
Precipitation  
Precipitation 0.01 in - - ()
Sea Level Pressure  
Sea Level Pressure 29.79 in    
Wind  
Wind Speed 13 mph ()    
Max Wind Speed 25 mph    
Max Gust Speed 32 mph    
Visibility 8.8 miles    
Events Rain    
Averages and records for this station are not official NWS values.
T = Trace of Precipitation, MM = Missing Value Source: Averaged Metar Reports

Daily Weather History Graph

Daily Weather History Graph

Search for Another Location

Airport or City:

Astronomy

Oct. 10, 2019 Rise Set
Actual Time 7:56 AM CEST 6:58 PM CEST
Civil Twilight 7:22 AM CEST 7:32 PM CEST
Nautical Twilight 6:43 AM CEST 8:11 PM CEST
Astronomical Twilight 6:03 AM CEST 8:51 PM CEST
Moon 6:24 PM CEST (10/10) 3:47 AM CEST (10/10)
Length of Visible Light 12h 09m
Length of Day
11h 01m
Waxing Gibbous, 89% of the Moon is Illuminated
Oct 10
Waxing Gibbous
Oct 13
Full
Oct 21
Last Quarter
Oct 28
New
Nov 4
First Quarter

Hourly Weather History & Observations

Time (CEST) Temp. Dew Point Humidity Pressure Visibility Wind Dir Wind Speed Gust Speed Precip Events Conditions
12:00 AM 50 °F 45 °F 78% 29.66 in 19 mi SW 6.7 mph - - Rain Rain
12:25 AM 51.8 °F 44.6 °F 76% 29.65 in 6.2 mi WSW 8.1 mph - N/A   Scattered Clouds
12:55 AM 51.8 °F 46.4 °F 82% 29.65 in 6.2 mi WSW 10.4 mph - N/A   Scattered Clouds
1:00 AM 51 °F 45 °F 74% 29.67 in 18 mi SSW 8.9 mph - - Rain Light Rain Showers
1:25 AM 50.0 °F 46.4 °F 87% 29.65 in 6.2 mi SSW 10.4 mph - N/A   Scattered Clouds
1:55 AM 51.8 °F 48.2 °F 88% 29.65 in 6.2 mi SSW 11.5 mph - N/A   Scattered Clouds
2:00 AM 51 °F 48 °F 86% 29.68 in 19 mi SSW 11.2 mph - - Rain Rain
2:25 AM 50.0 °F 48.2 °F 94% 29.65 in 6.2 mi SSW 11.5 mph - N/A   Partly Cloudy
2:55 AM 50.0 °F 48.2 °F 94% 29.68 in 6.2 mi SSW 13.8 mph - N/A   Partly Cloudy
3:00 AM 51 °F 48 °F 87% 29.68 in 19 mi SSW 13.4 mph - -   Partly Cloudy
3:25 AM 50.0 °F 48.2 °F 94% 29.68 in 6.2 mi SSW 12.7 mph - N/A   Partly Cloudy
3:55 AM 50.0 °F 48.2 °F 94% 29.68 in 6.2 mi SSW 13.8 mph - N/A   Partly Cloudy
4:00 AM 50 °F 48 °F 90% 29.69 in 14 mi SSW 13.4 mph - -   Partly Cloudy
4:25 AM 50.0 °F 48.2 °F 94% 29.68 in 6.2 mi SSW 13.8 mph - N/A   Partly Cloudy
4:55 AM 50.0 °F 48.2 °F 94% 29.68 in 6.2 mi SSW 12.7 mph - N/A   Partly Cloudy
5:00 AM 51 °F 49 °F 88% 29.70 in 14 mi SSW 13.4 mph - - Rain Light Rain Showers
5:25 AM 50.0 °F 48.2 °F 94% 29.68 in 6.2 mi SSW 12.7 mph - N/A   Partly Cloudy
5:55 AM 50.0 °F 48.2 °F 94% 29.71 in 6.2 mi SSW 12.7 mph - N/A   Partly Cloudy
6:00 AM 51 °F 49 °F 89% 29.71 in 11 mi SSW 11.2 mph - - Rain Light Rain Showers
6:25 AM 50.0 °F 48.2 °F 94% 29.71 in 6.2 mi SSW 11.5 mph - N/A Rain Light Rain Showers
6:55 AM 50.0 °F 48.2 °F 94% 29.71 in 6.2 mi SSW 11.5 mph - N/A   Partly Cloudy
7:00 AM 49 °F 48 °F 93% 29.73 in 12 mi SSW 11.2 mph - - Rain Rain
7:25 AM 48.2 °F 46.4 °F 93% 29.71 in 6.2 mi SSW 8.1 mph - N/A   Partly Cloudy
7:55 AM 50.0 °F 48.2 °F 94% 29.71 in 6.2 mi SSW 8.1 mph - N/A   Partly Cloudy
8:00 AM 49 °F 47 °F 89% 29.74 in 18 mi SSW 8.9 mph - -   Partly Cloudy
8:25 AM 50.0 °F 46.4 °F 87% 29.74 in 6.2 mi SW 9.2 mph - N/A   Partly Cloudy
8:55 AM 53.6 °F 46.4 °F 77% 29.77 in 6.2 mi WSW 11.5 mph - N/A   Partly Cloudy
9:25 AM 55.4 °F 48.2 °F 77% 29.77 in 6.2 mi WSW 12.7 mph - N/A Rain Light Rain Showers
9:55 AM 55.4 °F 48.2 °F 77% 29.77 in 6.2 mi WSW 15.0 mph - N/A   Scattered Clouds
10:25 AM 55.4 °F 48.2 °F 77% 29.80 in 6.2 mi WSW 17.3 mph - N/A   Scattered Clouds
10:55 AM 57.2 °F 48.2 °F 72% 29.80 in 6.2 mi WSW 17.3 mph - N/A   Partly Cloudy
11:00 AM 57 °F 47 °F 61% 29.82 in 16 mi West 20.1 mph - -   Partly Cloudy
11:25 AM 55.4 °F 46.4 °F 72% 29.80 in 6.2 mi West 18.4 mph - N/A   Partly Cloudy
11:55 AM 59.0 °F 46.4 °F 63% 29.83 in 6.2 mi WSW 21.9 mph - N/A   Partly Cloudy
12:00 PM 59 °F 47 °F 56% 29.83 in 17 mi West 22.4 mph - -   Partly Cloudy
12:25 PM 57.2 °F 46.4 °F 67% 29.83 in 6.2 mi WSW 20.7 mph - N/A   Partly Cloudy
12:55 PM 60.8 °F 48.2 °F 63% 29.83 in 6.2 mi West 20.7 mph 32.2 mph N/A   Partly Cloudy
1:00 PM 58 °F 47 °F 57% 29.85 in 19 mi WSW 24.6 mph - -   Partly Cloudy
1:25 PM 57.2 °F 48.2 °F 72% 29.83 in 6.2 mi WSW 21.9 mph - N/A   Partly Cloudy
1:55 PM 59.0 °F 46.4 °F 63% 29.86 in 6.2 mi WSW 19.6 mph - N/A   Partly Cloudy
2:00 PM 59 °F 48 °F 59% 29.86 in 15 mi WSW 20.1 mph - - Rain Rain
2:25 PM 59.0 °F 48.2 °F 67% 29.86 in 6.2 mi WSW 21.9 mph - N/A   Partly Cloudy
2:55 PM 57.2 °F 48.2 °F 72% 29.86 in 6.2 mi WSW 23.0 mph - N/A   Partly Cloudy
3:00 PM 57 °F 49 °F 65% 29.88 in 12 mi WSW 20.1 mph - -   Partly Cloudy
3:25 PM 57.2 °F 48.2 °F 72% 29.86 in 6.2 mi WSW 20.7 mph - N/A   Partly Cloudy
3:55 PM 59.0 °F 46.4 °F 63% 29.86 in 6.2 mi West 21.9 mph - N/A   Partly Cloudy
4:25 PM 59.0 °F 46.4 °F 63% 29.89 in 6.2 mi West 21.9 mph - N/A   Partly Cloudy
4:55 PM 59.0 °F 48.2 °F 67% 29.89 in 6.2 mi WSW 20.7 mph - N/A   Partly Cloudy
5:00 PM 58 °F 47 °F 59% 29.89 in 16 mi WSW 20.1 mph - -   Partly Cloudy
5:25 PM 59.0 °F 48.2 °F 67% 29.89 in 6.2 mi WSW 20.7 mph - N/A   Partly Cloudy
5:55 PM 57.2 °F 48.2 °F 72% 29.89 in 6.2 mi WSW 17.3 mph - N/A   Partly Cloudy
6:25 PM 57.2 °F 48.2 °F 72% 29.89 in 6.2 mi SW 15.0 mph - N/A   Partly Cloudy
6:55 PM 57.2 °F 48.2 °F 72% 29.89 in 6.2 mi SW 16.1 mph - N/A   Partly Cloudy
7:00 PM 56 °F 47 °F 65% 29.90 in 16 mi SW 13.4 mph - -   Partly Cloudy
7:25 PM 55.4 °F 48.2 °F 77% 29.89 in 6.2 mi SW 11.5 mph - N/A   Partly Cloudy
7:55 PM 55.4 °F 48.2 °F 77% 29.89 in 6.2 mi SSW 11.5 mph - N/A   Partly Cloudy
8:00 PM 56 °F 49 °F 69% 29.90 in 14 mi SSW 13.4 mph - -   Partly Cloudy
8:25 PM 55.4 °F 50.0 °F 82% 29.89 in 6.2 mi SSW 11.5 mph - N/A   Partly Cloudy
8:55 PM 57.2 °F 50.0 °F 77% 29.89 in 6.2 mi SSW 12.7 mph - N/A   Scattered Clouds
9:00 PM 57 °F 51 °F 72% 29.89 in 11 mi SSW 13.4 mph - -   Partly Cloudy
9:25 PM 57.2 °F 51.8 °F 82% 29.89 in 6.2 mi SSW 12.7 mph - N/A   Scattered Clouds
9:55 PM 57.2 °F 51.8 °F 82% 29.89 in 6.2 mi SSW 16.1 mph - N/A   Scattered Clouds
10:25 PM 57.2 °F 50.0 °F 77% 29.89 in 6.2 mi SSW 18.4 mph - N/A   Scattered Clouds
10:55 PM 57.2 °F 50.0 °F 77% 29.89 in 6.2 mi SSW 19.6 mph - N/A   Scattered Clouds
11:00 PM 56 °F 50 °F 75% 29.88 in 11 mi SSW 20.1 mph - -   Partly Cloudy
11:25 PM 55.4 °F 50.0 °F 82% 29.86 in 6.2 mi SSW 18.4 mph - N/A   Partly Cloudy
11:55 PM 57.2 °F 50.0 °F 77% 29.86 in 6.2 mi SSW 20.7 mph - N/A   Scattered Clouds